Weather History for Philadelphia, PA

Change the Weather History Date:

Wednesday, February 6, 2013

  Actual Average Record
Temperature  
Mean Temperature 34 °F 34 °F  
Max Temperature 42 °F 42 °F 68 °F (2008)
Min Temperature 26 °F 26 °F -3 °F (1895)
Degree Days  
Heating Degree Days 31 31  
Month to date heating degree days 214 187  
Since 1 July heating degree days 2591 2850  
Cooling Degree Days 0 0  
Month to date cooling degree days 0 0  
Year to date cooling degree days 0 0  
Moisture  
Dew Point 23 °F    
Average Humidity 65    
Maximum Humidity 92    
Minimum Humidity 38    
Precipitation  
Precipitation T in 0.10 in 3.86 in (1896)
Month to date precipitation 0.05 0.59  
Year to date precipitation 3.39 3.62  
Snow  
Snow T in 0.30 in 22.00 in (2010)
Month to date snowfall 1.1 2.1  
Since 1 July snowfall 5.4 12.3  
Snow Depth T in    
Sea Level Pressure  
Sea Level Pressure 30.14 in    
Wind  
Wind Speed 8 mph (WNW)    
Max Wind Speed 22 mph    
Max Gust Speed 29 mph    
Visibility 6 miles    
Events Snow    
T = Trace of Precipitation, MM = Missing Value Source: NWS Daily Summary

Daily Weather History Graph

Daily Weather History Graph

Search for Another Location

Airport:

Trip Planner

Search our weather history database for the weather conditions in past years. The results will help you decide how hot, cold, wet, or windy it might be!

Date:

Astronomy

Feb. 06, 2013 Rise Set
Actual Time 7:03 AM EST 5:26 PM EST
Civil Twilight 6:35 AM EST 5:54 PM EST
Nautical Twilight 6:03 AM EST 6:26 PM EST
Astronomical Twilight 5:32 AM EST 6:58 PM EST
Moon 3:45 AM EST (2/6) 1:42 PM EST (2/6)
Length of Visible Light 11h 19m
Length of Day
10h 22m
Waning Crescent, 17% of the Moon is Illuminated
Feb 6
Waning Crescent
Feb 10
New
Feb 17
First Quarter
Feb 25
Full
Mar 4
Last Quarter

Hourly Weather History & Observations

Time (EST) Temp. Windchill Dew Point Humidity Pressure Visibility Wind Dir Wind Speed Gust Speed Precip Events Conditions
12:54 AM 33.1 °F 27.7 °F 30.9 °F 92% 29.96 in 3.0 mi NW 5.8 mph - 0.00 in Snow Light Snow
1:54 AM 30.0 °F - 28.0 °F 92% 29.95 in 4.0 mi Calm Calm - 0.00 in   Scattered Clouds
2:54 AM 30.0 °F - 26.1 °F 85% 29.96 in 4.0 mi Calm Calm - N/A   Scattered Clouds
3:54 AM 28.0 °F - 26.1 °F 92% 29.97 in 4.0 mi Calm Calm - N/A   Clear
4:42 AM 26.6 °F 19.1 °F 24.8 °F 93% 30.01 in 2.0 mi West 6.9 mph - N/A   Clear
4:54 AM 27.0 °F 20.5 °F 25.0 °F 92% 30.01 in 2.0 mi WSW 5.8 mph - N/A   Clear
5:12 AM 26.6 °F 20.0 °F 24.8 °F 93% 30.01 in 2.0 mi WSW 5.8 mph - N/A   Mostly Cloudy
5:22 AM 26.6 °F 19.1 °F 24.8 °F 93% 30.02 in 2.0 mi WSW 6.9 mph - N/A   Scattered Clouds
5:54 AM 28.0 °F 20.8 °F 26.1 °F 92% 30.04 in 2.5 mi West 6.9 mph - N/A   Scattered Clouds
6:06 AM 26.6 °F 17.5 °F 24.8 °F 93% 30.05 in 3.0 mi West 9.2 mph - N/A   Mostly Cloudy
6:54 AM 28.9 °F 23.9 °F 27.0 °F 92% 30.07 in 3.0 mi WSW 4.6 mph - N/A   Mostly Cloudy
7:54 AM 30.0 °F 23.2 °F 28.0 °F 92% 30.12 in 3.0 mi West 6.9 mph - N/A   Mostly Cloudy
8:54 AM 33.1 °F 25.5 °F 27.0 °F 78% 30.13 in 4.0 mi West 9.2 mph - N/A   Haze
9:19 AM 33.8 °F 28.6 °F 26.6 °F 75% 30.15 in 5.0 mi WNW 5.8 mph - N/A   Haze
9:54 AM 35.1 °F 28.6 °F 27.0 °F 72% 30.16 in 5.0 mi WNW 8.1 mph - N/A   Haze
10:40 AM 35.6 °F 28.0 °F 26.6 °F 70% 30.18 in 7.0 mi WNW 10.4 mph - N/A   Overcast
10:54 AM 37.0 °F 29.3 °F 25.0 °F 62% 30.18 in 7.0 mi WNW 11.5 mph - N/A   Overcast
11:32 AM 37.4 °F 30.3 °F 24.8 °F 60% 30.17 in 10.0 mi West 10.4 mph 17.3 mph N/A   Mostly Cloudy
11:54 AM 39.0 °F 29.3 °F 23.0 °F 53% 30.17 in 10.0 mi West 19.6 mph 28.8 mph N/A   Mostly Cloudy
12:54 PM 39.0 °F 31.0 °F 21.9 °F 50% 30.17 in 10.0 mi WNW 13.8 mph 20.7 mph N/A   Overcast
1:54 PM 39.0 °F 31.0 °F 19.0 °F 45% 30.18 in 10.0 mi WNW 13.8 mph 26.5 mph N/A   Mostly Cloudy
2:54 PM 39.9 °F 31.8 °F 18.0 °F 41% 30.18 in 10.0 mi WNW 15.0 mph 26.5 mph N/A   Mostly Cloudy
3:54 PM 41.0 °F 33.1 °F 18.0 °F 40% 30.21 in 10.0 mi WNW 15.0 mph 25.3 mph N/A   Scattered Clouds
4:54 PM 39.0 °F 30.3 °F 18.0 °F 43% 30.23 in 10.0 mi NW 16.1 mph - N/A   Scattered Clouds
5:54 PM 37.9 °F 31.5 °F 19.0 °F 47% 30.26 in 10.0 mi NW 9.2 mph - N/A   Partly Cloudy
6:54 PM 37.9 °F 33.5 °F 19.0 °F 47% 30.30 in 10.0 mi WNW 5.8 mph - N/A   Clear
7:54 PM 36.0 °F 30.3 °F 19.9 °F 52% 30.30 in 10.0 mi WNW 6.9 mph - N/A   Clear
8:54 PM 35.1 °F 30.1 °F 19.0 °F 52% 30.32 in 10.0 mi NW 5.8 mph - N/A   Clear
9:54 PM 35.1 °F 29.3 °F 19.0 °F 52% 30.35 in 10.0 mi WNW 6.9 mph - N/A   Clear
10:54 PM 32.0 °F 28.7 °F 19.0 °F 59% 30.37 in 10.0 mi NNE 3.5 mph - N/A   Clear
11:54 PM 30.9 °F 27.5 °F 12.9 °F 47% 30.38 in 10.0 mi NNE 3.5 mph - N/A   Clear